Location: Liberec
(50.7830°N, 15.0500°E)
Time: 02:19:36
(UTC+01:00)

ISS - Pass Details

Date: 02 October 2020
Orbit: 417 x 420 km, 51.6° (Epoch: 25 October)

Event Time Altitude Azimuth Distance (km) Brightness Sun altitude
Rises 20:18:46 0° 286° (WNW) 2,370 1.9 -17.1°
Reaches altitude 10° 20:20:58 10° 277° (W) 1,504 0.3 -17.5°
Maximum altitude 20:24:06 36° 209° (SSW) 683 -2.6 -17.9°
Enters shadow 20:24:57 30° 175° (S) 774 -2.6 -18.1°
